[[{"header":{"parameterUnit":"m.s-1","parameterCategory":1,"la1":30.2991,"la2":30.254,"lo1":-89.0895,"lo2":-89.0444,"dy":0.0017,"dx":0.0017,"nx":28,"ny":28,"refTime":"2023-09-21T21:00:00:Z","depth":0,"parameterNumber":2,"parameterNumberName":"U-component_of_WINDS"},"data":[0,0,0,0,0,0,0,0,0,0,0,0,0,0,0,0,0,0,0,0,0,0,0,0,0,0,0,0,0,0,0,0,0,0,0,0,0,0,0,0,0,0,0,0,0,0,0,0,0,0,0,0,0,0,0,0,0,0,-2.9379,-2.938,0,-2.9403,-2.9403,-2.9404,-2.9324,-2.9322,-2.9319,-2.9317,-2.9338,-2.9341,-2.9343,0,0,0,0,0,0,0,0,0,0,0,0,0,-2.9262,-2.9265,-2.9379,-2.938,-2.938,-2.9403,-2.9403,-2.9404,-2.9325,-2.9322,-2.9319,-2.9316,-2.9337,-2.934,-2.9344,0,0,0,0,0,0,0,0,0,0,0,0,0,-2.9302,-2.9265,-2.9379,-2.9343,-2.934,-2.9403,-2.9403,-2.9404,-2.9325,-2.9322,-2.9318,-2.9315,-2.9336,-2.934,-2.9344,-2.9441,0,0,-2.9357,-2.9359,0,0,0,0,0,0,0,0,-2.93,-2.9306,-2.9348,-2.9346,-2.9343,-2.9357,-2.9369,-2.9416,-2.9326,-2.9331,-2.9317,-2.9313,-2.9347,-2.935,-2.9362,-2.9442,-2.9443,-2.9357,-2.936,-2.9362,-2.9363,0,0,0,0,0,0,0,-2.9297,-2.9305,-2.9389,-2.9349,-2.9346,-2.9325,-2.9327,-2.9378,-2.9359,-2.933,-2.9325,-2.9329,-2.9345,-2.9358,-2.9362,-2.9444,-2.9357,-2.9361,-2.9363,-2.9365,-2.9603,-2.9607,0,0,0,0,0,0,-2.93,-2.9303,-2.9388,-2.9389,-2.9312,-2.933,-2.9332,-2.9356,-2.9358,-2.9355,-2.9332,-2.9325,-2.9353,-2.9357,-2.9363,-2.9475,-2.9362,-2.9365,-2.9368,-2.9599,-2.9604,-2.9608,0,0,0,0,0,0,-2.9297,-2.9308,-2.9387,-2.9345,-2.9353,-2.9336,-2.9364,-2.9358,-2.9372,-2.9359,-2.9355,-2.9349,-2.935,-2.9357,-2.9422,-2.9475,-2.9367,-2.9371,-2.9595,-2.9601,-2.9606,-2.9702,0,0,0,0,0,0,-2.9294,-2.9308,-2.9345,-2.9346,-2.9356,-2.9448,-2.9367,-2.9361,-2.938,-2.9371,-2.9374,-2.9372,-2.9348,-2.9417,-2.9426,-2.9478,-2.9374,-2.959,-2.9598,-2.9604,-2.9694,-2.971,-2.9724,0,0,0,0,0,-2.929,-2.9371,-2.9348,-2.9358,-2.9403,-2.9451,-2.9456,-2.9428,-2.9384,-2.9421,-2.9413,-2.9371,-2.9468,-2.9424,-2.9434,-2.9489,-2.9587,-2.9595,-2.9604,-2.9687,-2.9707,-2.9724,0,0,0,0,0,0,-2.9375,-2.937,-2.9344,-2.9428,-2.9441,-2.9437,-2.9483,-2.9451,-2.9475,-2.9466,-2.9429,-2.9431,-2.9502,-2.9502,-2.9453,-2.9582,-2.9519,-2.9531,-2.9579,-2.9598,-2.9613,-2.961,-2.9378,0,0,0,0,0,-2.9404,-2.9445,-2.9438,-2.9512,-2.952,-2.9501,-2.9521,-2.9498,-2.9509,-2.9514,-2.951,-2.9522,-2.9554,-2.9576,-2.9606,-2.9694,-2.9693,-2.9737,-2.9752,-2.9764,-2.9774,-2.9819,-2.9838,-2.9636,-2.9636,-2.9636,0,0,-2.9463,-2.9465,-2.9493,-2.9529,-2.9536,-2.9577,-2.9505,-2.9553,-2.9583,-2.9521,-2.9582,-2.958,-2.959,-2.9668,-2.9701,-2.9669,-2.9829,-2.9775,-2.9785,-2.9788,-2.983,-2.9849,-2.9866,-2.9642,-2.9641,-2.964,0,0,-2.9591,-2.9598,-2.966,-2.9669,-2.9681,-2.9668,-2.9683,-2.9685,-2.9681,-2.9743,-2.9697,-2.9732,-2.979,-2.9798,-2.981,-2.9943,-2.9905,-2.9953,-3.0031,-3.0076,-3.0092,-3.0106,-3.0151,-3.0168,-2.9963,-2.9963,-2.9964,0,-2.9662,-2.9724,-2.9695,-2.9746,-2.9762,-2.971,-2.9771,-2.9781,-2.9802,-2.9814,-2.9778,-2.9849,-2.9852,-2.993,-2.9962,-2.9975,-2.9989,-2.9952,-3.0092,-3.0106,-3.0118,-3.0161,-3.0178,-2.9969,-2.9968,-2.9968,-2.9967,0,-2.981,-2.9854,-2.9902,-2.9925,-2.9947,-3.0003,-2.9981,-3.0007,-2.9983,-2.9973,-3.0036,-3.0038,-3.0067,-3.0084,-3.0061,-3.0158,-3.0138,-3.0099,-3.0034,-3.0143,-3.0183,-3.0199,-2.9977,-2.9975,-2.9974,-2.9972,0,0,-2.999,-2.9997,-3.0015,-3.0024,-3.0034,-3.0067,-3.012,-3.0149,-3.0171,-3.0187,-3.0229,-3.028,-3.0243,-3.0257,-3.0234,-3.0274,-3.0376,-3.0228,-3.0228,-3.0254,-3.0482,-3.051,-3.053,-3.0352,-3.0355,-3.0358,-3.048,0,-3.0115,-3.0207,-3.0182,-3.0273,-3.0312,-3.0263,-3.0309,-3.0319,-3.0312,-3.0343,-3.0334,-3.037,-3.032,-3.0327,-3.0365,-3.0356,-3.0421,-3.0347,-3.0389,-3.0391,-3.0386,-3.0551,-3.0581,-3.0697,-3.0496,-3.0499,-3.05,0,-3.0272,-3.0296,-3.0391,-3.0394,-3.0409,-3.0451,-3.0475,-3.0506,-3.0517,-3.0508,-3.0525,-3.0494,-3.0545,-3.0483,-3.0551,-3.0501,-3.0517,-3.0516,-3.052,-3.0521,-3.0451,-3.0555,-3.0733,-3.075,-3.0525,-3.0523,-3.0521,0,-3.0392,-3.0447,-3.0511,-3.0521,-3.0526,-3.0557,-3.056,-3.0567,-3.0586,-3.0607,-3.0619,-3.0646,-3.066,-3.068,-3.0658,-3.0615,-3.0729,-3.0665,-3.0722,-3.0723,-3.0746,-3.0745,-3.0928,-3.0761,-3.0761,-3.076,-3.076,0,-3.0532,-3.0592,-3.0565,-3.0604,-3.0669,-3.064,-3.0705,-3.0702,-3.0709,-3.0746,-3.0706,-3.074,-3.0709,-3.0741,-3.0724,-3.0782,-3.0789,-3.0783,-3.0777,-3.0785,-3.0786,-3.0794,-3.0784,-3.0765,-3.0764,-3.0763,-3.0762,0,-3.0676,-3.0661,-3.0726,-3.0727,-3.0728,-3.0776,-3.0776,-3.0811,-3.0801,-3.0848,-3.0857,-3.0842,-3.0877,-3.0857,-3.0893,-3.0881,-3.0957,-3.0941,-3.0954,-3.0949,-3.1006,-3.1,-3.1199,-3.1223,-3.1042,-3.1044,-3.1045,0,-3.0766,-3.081,-3.0816,-3.0838,-3.0845,-3.0881,-3.09,-3.0874,-3.0895,-3.0911,-3.0944,-3.0976,-3.1001,-3.1059,-3.105,-3.1078,-3.1061,-3.1129,-3.1065,-3.1071,-3.106,-3.1057,-3.106,-3.1141,-3.1143,-3.1145,-3.1146,0,-3.0926,-3.0916,-3.0946,-3.0973,-3.0998,-3.1018,-3.1034,-3.1055,-3.1028,-3.1055,-3.1091,-3.111,-3.1147,-3.1179,-3.1203,-3.1205,-3.1171,-3.1167,-3.1181,-3.1189,-3.1194,-3.119,-3.0987,-3.1162,-3.1161,-3.1159,-3.1159,-3.1158,-3.1043,-3.108,-3.109,-3.1125,-3.1135,-3.1151,-3.1184,-3.1179,-3.1209,-3.1238,-3.1221,-3.1263,-3.1272,-3.13,-3.1307,-3.1339,-3.1311,-3.1332,-3.1337,-3.1343,-3.135,-3.1191,-3.1343,-3.1343,-3.1342,-3.1342,-3.1341,0,-3.12,-3.1204,-3.1236,-3.1261,-3.1288,-3.1256,-3.1272,-3.1297,-3.1335,-3.1346,-3.1371,-3.1413,-3.1444,-3.1438,-3.1466,-3.1492,-3.1477,-3.15,-3.1497,-3.1498,-3.1373,-3.1357,-3.1512,-3.1512,-3.1512,-3.1512,-3.1512,-3.1511,-3.1284,-3.1345,-3.1336,-3.1401,-3.1404,-3.1446,-3.1458,-3.1473,-3.1482,-3.153,-3.1556,-3.1553,-3.1557,-3.1585,-3.1611,-3.1609,-3.162,-3.1648,-3.164,-3.1523,-3.1506,-3.149,-3.1475,-3.1651,-3.1652,-3.1761,-3.1762,-3.1763]},{"header":{"parameterUnit":"m.s-1","parameterCategory":1,"la1":30.2991,"la2":30.254,"lo1":-89.0895,"lo2":-89.0444,"dy":0.0017,"dx":0.0017,"nx":28,"ny":28,"refTime":"2023-09-21T21:00:00:Z","depth":0,"parameterNumber":3,"parameterNumberName":"V-component_of_WINDS"},"data":[0,0,0,0,0,0,0,0,0,0,0,0,0,0,0,0,0,0,0,0,0,0,0,0,0,0,0,0,0,0,0,0,0,0,0,0,0,0,0,0,0,0,0,0,0,0,0,0,0,0,0,0,0,0,0,0,0,0,1.2771,1.277,0,1.2646,1.2645,1.2643,1.2574,1.2574,1.2574,1.2574,1.2439,1.2436,1.2432,0,0,0,0,0,0,0,0,0,0,0,0,0,1.2943,1.294,1.2771,1.2769,1.2768,1.2646,1.2645,1.2643,1.2574,1.2574,1.2574,1.2574,1.244,1.2436,1.2432,0,0,0,0,0,0,0,0,0,0,0,0,0,1.2848,1.2939,1.2771,1.2719,1.2713,1.2647,1.2645,1.2643,1.2574,1.2574,1.2574,1.2574,1.2441,1.2436,1.2431,1.2405,0,0,1.2416,1.2413,0,0,0,0,0,0,0,0,1.2854,1.2842,1.2728,1.2723,1.2716,1.2626,1.2656,1.2563,1.2575,1.2627,1.2574,1.2574,1.2501,1.2491,1.2468,1.2398,1.2393,1.2415,1.2412,1.241,1.2408,0,0,0,0,0,0,0,1.286,1.2847,1.2721,1.2727,1.2719,1.27,1.2686,1.2638,1.2567,1.2622,1.2617,1.2604,1.2497,1.2473,1.2464,1.2391,1.2415,1.2411,1.2408,1.2406,1.2292,1.2292,0,0,0,0,0,0,1.2876,1.2853,1.2725,1.2718,1.2786,1.2697,1.2682,1.2655,1.2567,1.2554,1.2604,1.2601,1.2482,1.247,1.2459,1.2422,1.241,1.2405,1.2402,1.2292,1.2292,1.2292,0,0,0,0,0,0,1.288,1.2865,1.273,1.2784,1.2765,1.2694,1.2665,1.2653,1.2628,1.2553,1.254,1.2593,1.2481,1.2466,1.2419,1.2416,1.2403,1.2398,1.2292,1.2292,1.2292,1.2347,0,0,0,0,0,0,1.2885,1.2867,1.2858,1.2784,1.2763,1.2695,1.2665,1.265,1.262,1.2615,1.2539,1.2526,1.248,1.2427,1.2414,1.2409,1.2394,1.2292,1.2292,1.2292,1.2345,1.2349,1.2352,0,0,0,0,0,1.2892,1.2877,1.2858,1.2843,1.275,1.2695,1.2682,1.2631,1.262,1.2609,1.2561,1.2528,1.2419,1.2423,1.2407,1.2401,1.2292,1.2292,1.2292,1.2344,1.2348,1.2352,0,0,0,0,0,0,1.295,1.2866,1.2844,1.2806,1.2758,1.2683,1.2668,1.2638,1.2591,1.2588,1.2524,1.2508,1.2466,1.2428,1.2435,1.237,1.2352,1.2349,1.2396,1.24,1.2403,1.2413,1.239,0,0,0,0,0,1.2959,1.2923,1.2851,1.2824,1.2801,1.2739,1.2713,1.2679,1.2626,1.2604,1.2553,1.2501,1.2454,1.2425,1.2378,1.234,1.2321,1.2327,1.2331,1.2334,1.2332,1.2308,1.2309,1.2293,1.2293,1.2293,0,0,1.2975,1.2925,1.2906,1.2834,1.2793,1.2756,1.2722,1.2684,1.2655,1.2598,1.2551,1.2511,1.2448,1.2406,1.2384,1.2373,1.2333,1.2334,1.2338,1.2333,1.2308,1.231,1.2311,1.2293,1.2293,1.2293,0,0,1.2987,1.2946,1.2919,1.2879,1.2819,1.2777,1.2771,1.2701,1.2673,1.2625,1.2582,1.2545,1.2467,1.2424,1.2392,1.2388,1.2356,1.2375,1.2393,1.237,1.2371,1.2372,1.237,1.237,1.2373,1.2373,1.2373,0,1.3015,1.2959,1.2908,1.2873,1.2842,1.2791,1.2761,1.2724,1.2651,1.2629,1.2619,1.252,1.2474,1.242,1.242,1.2396,1.2385,1.2382,1.2376,1.2376,1.2376,1.2373,1.2372,1.2376,1.2375,1.2375,1.2375,0,1.2996,1.2958,1.2942,1.2875,1.2842,1.281,1.2753,1.2725,1.2693,1.2653,1.2604,1.2548,1.2489,1.2473,1.2441,1.2415,1.241,1.2388,1.2368,1.2381,1.2377,1.2376,1.2379,1.2378,1.2378,1.2377,0,0,1.3039,1.2946,1.2941,1.291,1.2839,1.2808,1.2772,1.2717,1.2694,1.2645,1.2613,1.2548,1.2528,1.2492,1.2454,1.2435,1.2434,1.2415,1.2413,1.242,1.24,1.2417,1.2416,1.2413,1.2413,1.2412,1.2405,0,1.304,1.2977,1.2931,1.2885,1.2848,1.2799,1.2768,1.2721,1.2682,1.2643,1.2599,1.2554,1.2531,1.2509,1.2488,1.2439,1.2429,1.2439,1.238,1.2379,1.2397,1.2414,1.2431,1.2427,1.2404,1.2403,1.2403,0,1.3033,1.2988,1.2939,1.2873,1.2855,1.2829,1.2774,1.2739,1.2683,1.2656,1.2616,1.2578,1.2536,1.2522,1.2463,1.2471,1.2443,1.2416,1.2415,1.2406,1.2391,1.2405,1.2425,1.2424,1.24,1.2401,1.2401,0,1.3069,1.2996,1.2957,1.2932,1.2854,1.2836,1.2802,1.2746,1.2716,1.2667,1.2647,1.2594,1.2564,1.2523,1.247,1.2464,1.2416,1.2397,1.2391,1.2392,1.2382,1.2383,1.2397,1.2366,1.2366,1.2366,1.2366,0,1.3074,1.3046,1.2972,1.2948,1.2915,1.2861,1.2828,1.2789,1.274,1.2707,1.266,1.2629,1.2562,1.2522,1.2481,1.2438,1.2425,1.24,1.2389,1.2404,1.2407,1.2384,1.2383,1.2366,1.2366,1.2366,1.2366,0,1.3108,1.3058,1.3012,1.2943,1.2925,1.2903,1.2842,1.2816,1.2775,1.2733,1.2719,1.2654,1.2605,1.2549,1.248,1.2452,1.2412,1.2396,1.2431,1.2425,1.2421,1.2422,1.242,1.2417,1.239,1.2391,1.2391,0,1.3114,1.3092,1.3021,1.2996,1.2964,1.2924,1.2894,1.2839,1.2809,1.2744,1.2725,1.2673,1.2628,1.2551,1.2496,1.2443,1.2425,1.2428,1.2417,1.2432,1.2424,1.2426,1.2423,1.2431,1.2432,1.2432,1.2433,0,1.3131,1.3107,1.3066,1.3017,1.2982,1.294,1.2895,1.2877,1.2813,1.2781,1.2731,1.2697,1.2628,1.2576,1.2516,1.2479,1.2444,1.2437,1.2433,1.2447,1.2468,1.2456,1.2439,1.2437,1.2437,1.2436,1.2436,1.2436,1.315,1.3128,1.3075,1.303,1.2992,1.2951,1.2923,1.288,1.2838,1.2779,1.2749,1.27,1.2643,1.256,1.2524,1.2483,1.2471,1.2465,1.2463,1.2462,1.2466,1.2476,1.2472,1.2471,1.2471,1.2471,1.2471,0,1.3163,1.3127,1.3087,1.3028,1.2992,1.2966,1.2915,1.2887,1.2845,1.2797,1.2754,1.2696,1.2646,1.2588,1.2533,1.2511,1.2494,1.2498,1.2499,1.2491,1.248,1.2489,1.2513,1.2513,1.2513,1.2513,1.2513,1.2513,1.3166,1.3127,1.3097,1.3038,1.3,1.2954,1.2927,1.2889,1.285,1.2789,1.2747,1.2711,1.2657,1.2599,1.2551,1.2534,1.2516,1.2525,1.2504,1.2495,1.2491,1.2488,1.2496,1.2522,1.2522,1.2518,1.2518,1.2518]}]]